Theta_e
343 342 342 338 339 333 333 334 334 333 333 347 347 348 349 353 356 355 354 356 359 357 357 356 355 353 352 354 357 358 358 359 357 354 355 355 355 355 355 356 355 356 356 352
343 337 339 337 335 334 335 333 334 333 341 347 344 346 350 355 353 359 356 356 356 354 352 350 347 344 344 345 345 345 346 346 346 346 346 346 347 347 350 354 354 354 354 354
341 341 340 344 341 337 337 335 333 333 352 350 348 348 353 354 353 356 357 356 354 351 349 346 344 342 342 342 341 341 341 342 342 342 343 343 345 347 347 347 349 351 351 352
346 347 351 342 340 340 340 337 336 334 340 344 349 348 350 351 353 353 352 350 350 348 346 344 343 342 342 342 343 342 342 341 340 340 340 341 342 342 341 344 346 348 348 347
348 351 346 344 341 340 342 336 334 334 345 345 345 346 351 349 352 351 351 348 346 345 342 341 340 341 342 341 341 342 341 342 341 341 341 342 342 343 344 343 344 344 342 345
347 348 343 340 340 335 336 334 338 340 343 345 344 346 347 348 347 347 346 344 342 340 340 340 341 341 342 342 342 344 342 340 338 340 340 342 342 342 340 342 344 342 341 340
344 345 343 339 337 336 338 350 343 341 342 344 348 355 353 352 347 345 344 343 342 341 340 338 340 339 338 337 338 340 341 339 339 340 341 340 339 339 340 341 342 344 344 344
341 341 346 341 341 341 349 345 346 342 343 354 353 351 349 348 347 346 344 340 337 337 337 336 336 337 338 341 342 342 340 340 340 340 341 340 341 342 342 342 342 342 342 342
339 344 345 340 341 344 343 344 346 348 347 346 348 349 347 346 345 340 337 336 336 336 336 335 337 339 340 339 339 339 339 338 338 337 337 337 338 338 339 339 341 341 341 342
338 336 340 340 340 340 340 339 344 344 344 344 346 345 340 339 340 339 335 336 334 335 336 337 335 336 338 337 337 337 337 337 337 336 335 333 333 333 333 334 335 335 335 336
337 336 334 336 337 335 339 340 340 339 339 337 337 336 336 337 338 334 334 334 335 336 336 336 335 336 335 335 335 336 336 336 335 334 334 333 332 331 332 332 333 334 333 333
333 335 337 339 336 337 337 337 336 336 336 334 334 333 333 334 333 336 336 335 335 335 335 336 335 334 334 334 335 336 335 333 332 331 331 332 331 333 333 333 333 331 331 331
334 332 333 333 332 332 336 336 334 334 333 333 332 331 331 332 333 333 335 336 336 336 335 335 335 335 335 333 331 333 333 332 330 330 330 329 330 331 332 332 332 332 332 332
332 332 332 331 331 330 332 334 332 332 331 331 330 332 333 333 333 334 335 333 332 332 331 331 331 330 328 327 328 329 328 328 327 331 330 329 330 330 330 331 333 332 331 333
330 331 331 333 332 333 333 333 333 332 332 334 333 333 334 334 333 333 330 329 329 328 327 325 324 323 323 324 326 327 327 328 328 326 326 326 327 329 329 330 331 331 332 333
331 332 332 332 334 333 333 332 332 335 335 335 335 333 331 329 328 328 328 326 324 324 322 322 322 323 323 321 320 321 321 322 323 323 324 325 326 328 328 329 328 329 331 332
331 333 333 332 332 335 335 335 335 335 333 332 330 328 327 327 325 324 321 320 320 319 318 319 319 317 315 316 317 317 318 319 320 321 323 323 325 326 326 326 326 327 327 329
331 332 335 333 336 336 337 334 332 330 330 328 325 325 324 323 321 320 318 317 317 317 317 316 314 314 314 314 315 314 315 316 317 318 319 320 323 324 324 324 324 325 326 327
330 335 335 334 334 333 331 329 327 327 325 324 324 323 322 320 318 317 316 315 316 316 314 312 312 311 312 312 312 311 311 312 313 314 315 316 318 322 322 322 322 323 323 324
334 332 330 328 327 328 326 324 323 324 322 321 321 320 319 318 317 316 315 315 315 313 311 311 311 311 310 309 309 310 309 310 311 313 314 316 318 319 320 321 321 320 320 321
331 329 328 325 322 322 322 322 322 321 320 319 319 319 319 319 317 316 315 315 313 312 310 311 310 309 308 308 308 308 308 309 309 311 312 312 313 315 316 316 317 318 319 321
327 326 324 323 323 322 321 321 320 320 320 318 318 318 318 318 316 316 315 312 311 309 311 311 310 308 307 307 306 307 306 306 307 308 309 310 311 312 313 314 315 316 320 322
323 322 321 321 322 321 320 319 318 318 317 316 317 317 316 316 315 313 314 313 312 309 312 312 308 308 307 307 306 305 304 304 304 304 304 305 306 308 310 311 312 313 314 315
326 325 323 322 321 321 320 317 316 316 315 314 315 315 313 313 313 311 311 311 310 309 311 311 309 309 309 308 307 305 304 303 301 301 302 303 304 304 305 305 305 307 306 307
327 326 323 322 321 320 319 317 316 316 314 314 314 314 313 312 312 311 311 310 310 309 309 310 310 309 310 308 307 305 304 302 301 300 300 301 301 300 300 300 300 301 301 301
329 327 325 323 321 319 318 317 317 315 313 313 313 313 312 312 312 311 311 311 311 310 309 309 310 310 310 310 308 307 305 303 302 301 300 300 299 299 298 298 297 297 297 297
328 327 325 323 321 319 318 317 315 315 314 314 312 312 313 312 312 312 312 312 312 312 311 310 310 309 308 309 310 308 307 306 304 302 301 301 300 298 298 297 297 296 295 295
Wind_Speed
19 24 24 18 15 8 5 5 6 12 10 15 10 14 11 10 11 9 8 8 9 10 7 9 8 8 8 8 8 6 4 4 8 8 8 11 14 15 16 16 16 19 19 19
3 3 11 16 17 13 8 10 8 5 7 11 8 11 11 11 10 12 10 9 11 8 8 7 7 8 7 8 8 8 7 7 8 9 10 11 12 14 15 14 13 14 15 16
1 10 4 17 21 12 9 2 3 7 13 11 8 5 9 9 9 13 9 8 10 10 9 7 6 5 5 5 5 8 9 10 10 12 13 13 14 15 14 14 15 14 14 14
4 9 9 7 12 14 21 10 9 7 5 8 10 8 7 8 11 12 9 10 7 8 13 12 10 9 4 3 4 4 5 6 8 9 13 15 14 14 15 15 14 13 14 14
4 4 13 30 6 7 23 5 5 7 11 8 7 5 7 9 14 12 12 9 8 7 8 5 2 6 7 4 5 6 8 8 7 8 11 14 15 15 13 14 15 17 17 14
3 6 4 15 24 3 7 2 11 9 9 11 8 7 7 9 12 10 11 8 5 2 6 12 15 11 9 10 10 12 8 5 8 11 13 16 18 19 20 18 17 18 18 19
8 5 8 4 14 8 3 5 9 7 5 7 7 7 7 9 10 9 8 7 1 2 5 6 6 5 7 11 12 7 8 10 13 15 16 19 23 21 20 21 20 20 19 22
6 10 1 10 11 4 5 5 9 3 5 14 12 8 5 7 8 7 5 3 3 3 6 11 11 6 3 8 11 10 12 14 16 17 19 22 24 24 22 21 23 24 24 25
6 5 3 2 4 7 9 5 3 6 6 6 8 8 11 10 14 7 8 6 6 8 8 7 10 4 1 6 9 11 12 15 18 21 24 26 27 27 26 25 24 23 22 22
6 5 8 9 7 4 5 6 5 5 3 4 7 9 2 7 10 9 11 10 12 12 10 11 12 11 7 8 8 10 13 16 19 21 23 28 28 27 26 24 23 22 21 18
2 9 8 3 4 4 4 5 3 8 7 6 6 8 9 8 8 8 8 7 7 11 12 13 13 12 14 16 16 16 17 19 21 23 25 22 22 24 25 25 24 24 24 22
5 8 6 6 5 2 2 2 2 3 6 2 4 5 6 5 8 10 9 7 8 10 12 12 14 16 18 17 17 18 17 18 21 25 24 20 22 24 24 26 25 23 27 34
6 11 7 6 6 9 4 6 4 4 3 4 5 5 5 5 12 10 13 14 13 13 15 16 17 19 18 18 21 22 21 18 20 23 22 23 22 22 23 27 27 27 27 22
6 6 5 6 5 7 4 9 8 7 4 4 3 10 13 11 12 13 13 15 17 19 19 20 17 19 22 25 25 23 21 21 23 25 21 20 20 20 22 23 22 23 24 21
5 7 7 5 4 2 3 3 7 4 1 11 17 12 13 13 13 13 14 15 17 17 18 21 23 25 24 22 24 23 24 22 18 18 22 23 24 25 24 23 21 22 24 22
4 5 7 4 3 3 4 3 4 11 11 12 14 13 12 12 12 13 14 16 17 17 19 19 21 19 18 21 24 23 22 23 23 22 23 22 24 23 26 18 17 19 22 23
7 4 6 3 5 8 11 10 10 10 10 12 12 11 10 11 11 12 13 14 16 17 18 18 15 20 25 25 26 24 24 24 25 27 24 23 24 21 23 22 20 22 23 25
7 5 10 3 11 11 11 9 11 11 11 10 7 7 8 9 9 11 12 14 14 14 13 17 22 24 26 24 23 22 23 23 23 23 23 26 26 22 21 22 21 21 22 25
6 9 15 14 14 11 11 10 11 11 8 6 6 7 8 10 10 11 12 14 14 15 19 23 24 24 22 22 23 23 22 23 23 24 23 25 26 23 20 20 21 22 24 26
11 13 12 12 12 11 10 9 10 10 8 7 7 7 8 8 10 12 11 12 13 16 21 22 22 21 21 25 26 26 25 25 24 24 24 22 22 21 21 21 19 22 26 27
10 10 10 10 9 10 9 8 9 8 7 6 7 5 5 6 7 9 11 12 15 17 19 19 21 22 26 27 27 21 21 22 22 22 21 21 22 22 23 25 25 24 27 27
10 10 10 9 9 8 8 7 7 5 5 4 5 5 6 5 6 7 7 8 13 18 13 16 20 23 24 22 21 21 22 22 22 21 21 21 20 21 21 22 24 26 26 27
12 9 9 7 8 9 6 5 5 4 3 3 3 4 5 5 4 6 7 7 11 14 10 13 23 25 24 21 22 23 23 22 22 22 22 22 21 21 21 21 23 22 23 24
10 7 7 7 8 7 5 1 3 3 2 3 2 2 4 7 5 8 8 7 10 13 8 8 18 24 23 23 23 25 25 24 25 24 23 22 20 21 21 21 22 21 22 24
8 6 5 5 5 6 6 5 6 8 7 9 8 6 4 3 6 8 8 10 12 12 13 9 15 17 17 20 22 25 25 25 27 26 24 23 23 23 22 22 22 23 23 23
11 11 12 11 9 6 9 10 8 3 2 4 3 3 4 4 4 8 9 9 11 12 13 14 11 11 14 12 14 18 22 26 27 27 26 25 25 24 24 24 24 24 24 24
15 13 10 10 8 7 3 5 3 1 4 2 6 5 3 3 4 6 7 10 12 13 13 13 14 14 12 15 12 15 17 20 25 29 26 26 27 26 27 27 27 27 27 26
Wind_Direction
141 178 224 273 271 280 253 308 308 331 334 123 135 144 154 145 117 126 121 107 124 111 105 109 94 80 70 60 56 47 27 355 349 329 312 309 313 314 310 298 287 281 283 285
78 144 313 227 248 250 271 263 257 278 75 76 108 127 144 143 145 120 125 124 104 110 130 121 116 100 75 62 51 41 34 28 21 17 9 4 358 352 350 345 317 303 295 296
117 168 28 305 324 290 282 71 0 304 103 118 104 111 142 151 161 132 125 130 141 150 141 138 141 135 113 67 34 16 2 358 5 357 356 357 350 346 344 346 343 339 330 316
43 22 292 310 34 338 297 314 283 284 126 109 126 145 161 163 142 141 143 136 148 174 153 190 191 133 141 196 203 251 287 291 306 326 333 335 338 336 334 335 330 327 321 317
123 106 306 284 324 209 261 345 307 235 106 108 106 165 147 195 153 156 137 146 174 175 167 120 210 227 209 232 272 248 269 284 299 309 311 311 313 315 315 316 317 314 311 310
128 141 223 264 250 89 45 291 345 132 127 138 141 229 242 183 103 130 139 156 164 197 207 217 198 252 190 223 247 256 270 352 341 317 300 301 301 300 303 303 300 301 306 305
189 191 212 202 310 86 252 57 31 63 103 163 128 98 122 154 153 147 132 108 105 269 289 326 43 11 349 340 322 352 342 329 318 309 304 298 293 295 295 292 287 286 289 288
235 272 168 352 354 335 81 91 31 24 27 102 118 113 144 155 124 111 87 77 30 351 6 353 352 343 336 350 4 346 335 322 312 310 306 302 306 304 299 291 289 286 282 279
348 19 165 129 48 31 16 63 97 26 34 5 106 90 60 5 64 59 61 26 356 4 356 322 322 61 352 288 304 301 294 298 300 301 298 295 291 290 288 284 274 271 268 266
327 16 27 47 63 63 339 326 92 139 97 40 104 101 332 53 53 38 23 16 353 343 340 346 336 340 329 292 295 305 302 300 299 297 296 292 286 283 281 281 280 278 280 278
276 267 276 222 233 333 99 3 66 73 68 53 42 45 41 42 36 19 2 341 356 354 335 324 330 343 339 329 324 311 300 296 293 288 288 295 298 290 287 287 284 280 282 285
248 63 2 55 33 134 354 183 307 128 128 113 65 2 20 19 12 37 33 339 307 312 324 335 328 315 310 302 298 296 295 298 302 302 297 305 310 308 304 305 306 305 294 276
26 15 10 346 316 298 173 234 204 118 48 22 26 1 15 3 55 15 13 17 356 337 328 323 323 323 328 324 319 315 299 301 310 311 307 305 300 303 300 307 309 310 302 293
8 336 307 270 272 236 222 133 87 81 28 316 283 51 35 18 9 7 2 346 340 335 331 331 346 342 339 335 329 319 308 300 300 296 282 285 289 294 299 301 300 298 299 305
295 276 261 331 215 162 174 136 132 202 346 52 51 35 27 16 1 353 342 334 332 337 336 344 335 328 328 330 326 318 315 309 307 312 308 302 298 291 289 290 294 293 296 298
266 271 255 219 203 207 161 201 65 54 45 39 38 26 11 359 343 341 3 351 347 336 330 325 324 332 333 329 322 316 316 312 307 302 295 291 288 288 294 280 291 299 304 305
299 237 262 209 264 82 71 72 63 55 48 43 25 7 357 2 357 2 356 344 333 328 328 328 339 329 325 317 311 309 310 306 301 296 290 300 295 299 297 300 302 295 288 287
278 309 28 50 69 79 84 64 77 64 56 39 14 13 21 17 5 356 352 341 341 335 339 341 329 327 323 322 325 320 315 307 305 302 304 300 297 296 293 294 291 292 300 302
226 75 67 50 71 81 71 67 68 72 63 51 41 38 23 23 11 359 353 351 347 348 344 333 331 329 327 328 327 320 311 307 302 297 294 295 299 301 303 302 297 297 296 294
82 84 81 72 56 75 91 84 89 86 72 65 56 45 33 22 12 4 0 350 3 347 338 339 338 335 332 326 323 316 307 302 298 295 290 288 292 297 300 297 302 306 299 292
105 105 99 89 86 82 78 84 92 93 83 74 68 43 11 56 31 14 10 4 359 348 348 347 346 338 333 331 329 327 327 323 321 320 319 315 311 306 303 301 299 293 292 289
128 113 109 116 105 98 97 94 94 95 86 60 38 25 3 58 34 47 71 32 9 2 2 359 353 348 344 343 337 332 333 328 322 318 313 312 312 312 310 305 299 295 297 288
82 96 101 98 119 126 115 124 124 105 83 55 26 6 350 345 37 5 358 353 352 346 340 358 6 8 5 354 348 346 343 341 338 333 327 322 317 312 312 317 317 317 318 317
134 149 142 147 144 145 150 170 123 141 159 208 139 303 320 338 345 16 347 352 351 339 313 360 7 11 6 1 358 358 352 350 348 343 338 337 336 334 331 331 326 324 323 323
160 165 171 166 183 180 176 198 217 210 209 213 210 232 261 15 332 349 349 347 343 344 340 345 1 5 1 5 7 5 359 358 356 355 352 351 349 346 341 338 334 331 330 330
189 195 200 199 236 202 193 178 241 122 338 300 319 335 345 348 18 355 359 7 359 354 357 0 348 349 353 349 3 3 4 7 6 2 5 2 359 356 355 353 348 349 344 341
208 215 192 192 217 223 246 53 336 210 186 54 339 316 305 359 44 19 14 11 6 3 1 359 358 349 349 355 345 4 4 4 7 12 8 6 7 6 7 5 5 7 4 0